[[{"header":{"parameterUnit":"m.s-1","parameterCategory":1,"la1":30.2991,"la2":30.254,"lo1":-89.0895,"lo2":-89.0444,"dy":0.0017,"dx":0.0017,"nx":28,"ny":28,"refTime":"2023-11-04T09:00:00:Z","depth":0,"parameterNumber":2,"parameterNumberName":"U-component_of_WINDS"},"data":[0,0,0,0,0,0,0,0,0,0,0,0,0,0,0,0,0,0,0,0,0,0,0,0,0,0,0,0,0,0,0,0,0,0,0,0,0,0,0,0,0,0,0,0,0,0,0,0,0,0,0,0,0,0,0,0,0,0,-0.7254,-0.7255,0,-0.7392,-0.7394,-0.7395,-0.7382,-0.7379,-0.7377,-0.7375,-0.752,-0.7526,-0.7532,0,0,0,0,0,0,0,0,0,0,0,0,0,-0.6981,-0.6986,-0.7253,-0.7255,-0.7257,-0.7392,-0.7394,-0.7396,-0.7382,-0.7379,-0.7377,-0.7374,-0.7519,-0.7525,-0.7533,0,0,0,0,0,0,0,0,0,0,0,0,0,-0.7108,-0.6988,-0.7253,-0.7266,-0.7269,-0.7391,-0.7394,-0.7396,-0.7383,-0.7379,-0.7376,-0.7373,-0.7516,-0.7525,-0.7534,-0.7653,0,0,-0.756,-0.7564,0,0,0,0,0,0,0,0,-0.71,-0.7118,-0.7263,-0.7266,-0.7269,-0.7366,-0.7351,-0.7482,-0.7383,-0.7339,-0.7375,-0.7371,-0.7472,-0.7484,-0.7517,-0.766,-0.7666,-0.7561,-0.7567,-0.757,-0.7573,0,0,0,0,0,0,0,-0.7092,-0.7112,-0.7308,-0.7265,-0.7268,-0.7267,-0.7281,-0.7376,-0.7422,-0.7343,-0.7342,-0.7359,-0.7473,-0.7509,-0.7521,-0.7668,-0.7561,-0.7569,-0.7574,-0.7578,-0.7919,-0.7922,0,0,0,0,0,0,-0.7079,-0.7104,-0.7304,-0.7312,-0.7175,-0.7274,-0.729,-0.7338,-0.7421,-0.7431,-0.7361,-0.7358,-0.7496,-0.751,-0.7526,-0.7673,-0.757,-0.7579,-0.7584,-0.7915,-0.7919,-0.7924,0,0,0,0,0,0,-0.7073,-0.7097,-0.7298,-0.7208,-0.7234,-0.7282,-0.7336,-0.7343,-0.7379,-0.7435,-0.7444,-0.7389,-0.7494,-0.7513,-0.7622,-0.7678,-0.7583,-0.7591,-0.791,-0.7916,-0.7921,-0.7968,0,0,0,0,0,0,-0.7066,-0.7095,-0.714,-0.7209,-0.7239,-0.7391,-0.734,-0.7348,-0.7393,-0.739,-0.7464,-0.7473,-0.7493,-0.7609,-0.7631,-0.7689,-0.7598,-0.7906,-0.7913,-0.792,-0.7962,-0.7974,-0.7985,0,0,0,0,0,-0.7056,-0.7148,-0.7142,-0.7166,-0.7295,-0.7394,-0.7411,-0.7431,-0.7398,-0.7444,-0.7481,-0.747,-0.7668,-0.762,-0.7645,-0.7706,-0.7902,-0.7911,-0.7919,-0.7956,-0.7972,-0.7985,0,0,0,0,0,0,-0.7084,-0.7157,-0.7152,-0.7268,-0.7325,-0.7392,-0.7451,-0.7446,-0.7515,-0.7508,-0.7531,-0.7548,-0.7658,-0.7693,-0.7638,-0.7827,-0.7781,-0.7795,-0.7801,-0.7816,-0.7828,-0.7818,-0.7605,0,0,0,0,0,-0.7104,-0.7176,-0.7237,-0.7334,-0.7362,-0.7402,-0.7445,-0.7456,-0.7516,-0.754,-0.7585,-0.7645,-0.7721,-0.777,-0.7843,-0.7966,-0.7983,-0.8021,-0.8032,-0.8042,-0.8054,-0.8125,-0.8143,-0.7951,-0.7951,-0.7951,0,0,-0.7145,-0.7194,-0.7239,-0.7341,-0.7386,-0.7463,-0.7422,-0.7504,-0.7562,-0.7553,-0.7659,-0.7694,-0.7762,-0.7879,-0.7933,-0.7911,-0.8111,-0.8053,-0.806,-0.8067,-0.8135,-0.8153,-0.8169,-0.7957,-0.7956,-0.7955,0,0,-0.726,-0.7304,-0.739,-0.7437,-0.7506,-0.7531,-0.7552,-0.762,-0.7643,-0.7749,-0.7745,-0.7814,-0.7943,-0.7993,-0.8035,-0.8171,-0.8165,-0.8194,-0.8257,-0.8326,-0.8341,-0.8354,-0.8405,-0.8423,-0.8206,-0.8206,-0.8206,0,-0.7304,-0.7418,-0.7436,-0.752,-0.7566,-0.756,-0.765,-0.7694,-0.7784,-0.7817,-0.7791,-0.7954,-0.8,-0.813,-0.8163,-0.8197,-0.8223,-0.8187,-0.8337,-0.8351,-0.8364,-0.8412,-0.8431,-0.8209,-0.8209,-0.8209,-0.8208,0,-0.7469,-0.7548,-0.761,-0.7697,-0.7749,-0.7835,-0.7868,-0.792,-0.7926,-0.7955,-0.8065,-0.8119,-0.8204,-0.8235,-0.8242,-0.8367,-0.8352,-0.8331,-0.8286,-0.8385,-0.8431,-0.845,-0.8214,-0.8213,-0.8212,-0.8211,0,0,-0.7605,-0.7701,-0.7724,-0.7764,-0.7841,-0.7903,-0.799,-0.8072,-0.8117,-0.818,-0.8254,-0.8365,-0.8347,-0.8395,-0.8407,-0.8467,-0.8574,-0.8439,-0.8441,-0.8464,-0.8718,-0.8735,-0.8756,-0.857,-0.8574,-0.8576,-0.8713,0,-0.773,-0.7882,-0.7902,-0.8038,-0.8113,-0.811,-0.8186,-0.8242,-0.8272,-0.8341,-0.8375,-0.8453,-0.8422,-0.8452,-0.851,-0.8549,-0.8626,-0.8539,-0.8642,-0.8645,-0.8627,-0.878,-0.8797,-0.8923,-0.8731,-0.8734,-0.8736,0,-0.7895,-0.7962,-0.8105,-0.8173,-0.8206,-0.8273,-0.8352,-0.8417,-0.8482,-0.8499,-0.8554,-0.8559,-0.8651,-0.8601,-0.8729,-0.8669,-0.8713,-0.8738,-0.8744,-0.8755,-0.8698,-0.8797,-0.8964,-0.8983,-0.8765,-0.8762,-0.876,0,-0.7983,-0.8109,-0.8211,-0.8246,-0.8327,-0.8375,-0.8412,-0.8473,-0.8522,-0.8591,-0.8623,-0.8702,-0.8745,-0.8807,-0.8834,-0.8794,-0.8962,-0.8913,-0.8981,-0.8981,-0.9017,-0.9015,-0.9195,-0.9043,-0.9042,-0.9042,-0.9041,0,-0.812,-0.8209,-0.8252,-0.8316,-0.8416,-0.8438,-0.8537,-0.8572,-0.8626,-0.8698,-0.87,-0.8767,-0.8799,-0.8872,-0.8894,-0.8998,-0.9017,-0.9036,-0.9041,-0.9037,-0.9034,-0.9066,-0.9059,-0.9047,-0.9046,-0.9045,-0.9044,0,-0.8235,-0.8268,-0.838,-0.8448,-0.8468,-0.8539,-0.8598,-0.866,-0.869,-0.8781,-0.8803,-0.885,-0.8936,-0.8969,-0.9074,-0.9089,-0.921,-0.9207,-0.9188,-0.919,-0.9257,-0.9251,-0.9465,-0.9496,-0.9321,-0.9323,-0.9324,0,-0.8322,-0.839,-0.8466,-0.8514,-0.8552,-0.8628,-0.8679,-0.8704,-0.8756,-0.8836,-0.889,-0.8975,-0.9045,-0.9183,-0.9228,-0.9308,-0.9309,-0.9378,-0.9321,-0.9315,-0.9313,-0.9309,-0.9317,-0.9389,-0.9391,-0.9393,-0.9394,0,-0.8472,-0.8485,-0.8557,-0.8635,-0.8695,-0.8758,-0.8819,-0.8859,-0.8894,-0.8953,-0.9041,-0.9095,-0.9203,-0.9288,-0.9372,-0.9411,-0.941,-0.9411,-0.9432,-0.9429,-0.9416,-0.9426,-0.9219,-0.9407,-0.9405,-0.9404,-0.9404,-0.9403,-0.8577,-0.8638,-0.8702,-0.8783,-0.8831,-0.8889,-0.8952,-0.8989,-0.9063,-0.9152,-0.9163,-0.9258,-0.9323,-0.9435,-0.9478,-0.9554,-0.9535,-0.9564,-0.9572,-0.9579,-0.9585,-0.9402,-0.9569,-0.9568,-0.9568,-0.9568,-0.9567,0,-0.873,-0.8771,-0.8844,-0.893,-0.8994,-0.8986,-0.9054,-0.9109,-0.9192,-0.9252,-0.9321,-0.9423,-0.9507,-0.9558,-0.9643,-0.9694,-0.9696,-0.9716,-0.9713,-0.9722,-0.9595,-0.957,-0.9713,-0.9713,-0.9713,-0.9713,-0.9713,-0.9713,-0.8816,-0.892,-0.8942,-0.9071,-0.9111,-0.9204,-0.9244,-0.9298,-0.9347,-0.946,-0.953,-0.9562,-0.962,-0.9709,-0.9786,-0.98,-0.9832,-0.9853,-0.9865,-0.9746,-0.9731,-0.9717,-0.9693,-0.986,-0.986,-0.9986,-0.9988,-0.9988]},{"header":{"parameterUnit":"m.s-1","parameterCategory":1,"la1":30.2991,"la2":30.254,"lo1":-89.0895,"lo2":-89.0444,"dy":0.0017,"dx":0.0017,"nx":28,"ny":28,"refTime":"2023-11-04T09:00:00:Z","depth":0,"parameterNumber":3,"parameterNumberName":"V-component_of_WINDS"},"data":[0,0,0,0,0,0,0,0,0,0,0,0,0,0,0,0,0,0,0,0,0,0,0,0,0,0,0,0,0,0,0,0,0,0,0,0,0,0,0,0,0,0,0,0,0,0,0,0,0,0,0,0,0,0,0,0,0,0,-2.722,-2.7221,0,-2.7261,-2.7262,-2.7262,-2.7231,-2.723,-2.7229,-2.7227,-2.7267,-2.7269,-2.7271,0,0,0,0,0,0,0,0,0,0,0,0,0,-2.7112,-2.7114,-2.722,-2.7221,-2.7221,-2.7261,-2.7262,-2.7262,-2.7231,-2.723,-2.7228,-2.7227,-2.7266,-2.7269,-2.7272,0,0,0,0,0,0,0,0,0,0,0,0,0,-2.7156,-2.7115,-2.722,-2.7211,-2.721,-2.7261,-2.7262,-2.7262,-2.7232,-2.723,-2.7228,-2.7226,-2.7265,-2.7269,-2.7272,-2.7334,0,0,-2.7283,-2.7284,0,0,0,0,0,0,0,0,-2.7154,-2.716,-2.7212,-2.7211,-2.7211,-2.7239,-2.7238,-2.7286,-2.7232,-2.7224,-2.7227,-2.7225,-2.7259,-2.7263,-2.7275,-2.7335,-2.7337,-2.7283,-2.7285,-2.7286,-2.7287,0,0,0,0,0,0,0,-2.7151,-2.7158,-2.7236,-2.7212,-2.7212,-2.7203,-2.7207,-2.7247,-2.7252,-2.7224,-2.7222,-2.7227,-2.7259,-2.7272,-2.7276,-2.7338,-2.7283,-2.7286,-2.7288,-2.7289,-2.7449,-2.7452,0,0,0,0,0,0,-2.7149,-2.7156,-2.7235,-2.7238,-2.7177,-2.7207,-2.7212,-2.7232,-2.7252,-2.7253,-2.7229,-2.7226,-2.7267,-2.7272,-2.7277,-2.735,-2.7286,-2.729,-2.7292,-2.7447,-2.745,-2.7452,0,0,0,0,0,0,-2.7147,-2.7156,-2.7233,-2.7196,-2.7205,-2.7211,-2.7234,-2.7234,-2.7247,-2.7255,-2.7256,-2.7242,-2.7265,-2.7272,-2.732,-2.7351,-2.7291,-2.7294,-2.7445,-2.7448,-2.7451,-2.7497,0,0,0,0,0,0,-2.7144,-2.7156,-2.718,-2.7197,-2.7208,-2.7277,-2.7236,-2.7236,-2.7253,-2.725,-2.7267,-2.7268,-2.7264,-2.7315,-2.7323,-2.7354,-2.7297,-2.7442,-2.7446,-2.745,-2.7492,-2.7501,-2.7508,0,0,0,0,0,-2.714,-2.7191,-2.7182,-2.7191,-2.7238,-2.7278,-2.7284,-2.7279,-2.7256,-2.728,-2.7285,-2.7268,-2.7346,-2.732,-2.7329,-2.7362,-2.744,-2.7445,-2.745,-2.7489,-2.7499,-2.7508,0,0,0,0,0,0,-2.7177,-2.7193,-2.7183,-2.7241,-2.7259,-2.7273,-2.7303,-2.7291,-2.7315,-2.731,-2.7302,-2.7306,-2.7356,-2.7364,-2.7334,-2.7422,-2.7389,-2.7396,-2.7416,-2.7426,-2.7434,-2.7431,-2.73,0,0,0,0,0,-2.7192,-2.7224,-2.7236,-2.7286,-2.7295,-2.7298,-2.7315,-2.731,-2.7328,-2.7335,-2.7343,-2.736,-2.7389,-2.7407,-2.7434,-2.7493,-2.7496,-2.752,-2.7528,-2.7535,-2.7541,-2.7572,-2.7582,-2.7468,-2.7468,-2.7468,0,0,-2.7223,-2.7235,-2.7256,-2.7294,-2.7307,-2.7339,-2.7304,-2.734,-2.7364,-2.734,-2.7386,-2.7392,-2.7411,-2.7464,-2.7488,-2.7472,-2.7573,-2.7541,-2.7546,-2.7549,-2.7578,-2.7589,-2.7598,-2.7472,-2.7471,-2.7471,0,0,-2.7296,-2.7309,-2.7352,-2.7366,-2.7386,-2.7388,-2.7398,-2.7414,-2.7418,-2.7464,-2.7446,-2.7473,-2.7523,-2.7536,-2.755,-2.7627,-2.7612,-2.7636,-2.7678,-2.7708,-2.7717,-2.7725,-2.7753,-2.7763,-2.7642,-2.7642,-2.7642,0,-2.7332,-2.7381,-2.7375,-2.7413,-2.7429,-2.7409,-2.7452,-2.7465,-2.7493,-2.7504,-2.7486,-2.7547,-2.7558,-2.7614,-2.7633,-2.7644,-2.7655,-2.7634,-2.7717,-2.7725,-2.7732,-2.7758,-2.7768,-2.7645,-2.7645,-2.7644,-2.7644,0,-2.7424,-2.7458,-2.749,-2.7518,-2.7538,-2.7578,-2.7577,-2.7598,-2.7591,-2.7593,-2.764,-2.7652,-2.768,-2.7693,-2.7686,-2.7748,-2.7737,-2.7718,-2.7685,-2.7746,-2.777,-2.778,-2.7649,-2.7648,-2.7647,-2.7646,0,0,-2.7522,-2.7546,-2.7558,-2.757,-2.7591,-2.7617,-2.7655,-2.7684,-2.7701,-2.7721,-2.7752,-2.7794,-2.7776,-2.7791,-2.7785,-2.7812,-2.7872,-2.7789,-2.7789,-2.7804,-2.794,-2.7955,-2.7966,-2.7862,-2.7863,-2.7865,-2.7938,0,-2.7596,-2.7665,-2.766,-2.7723,-2.7755,-2.7735,-2.7768,-2.7784,-2.7787,-2.7813,-2.7816,-2.7846,-2.782,-2.7829,-2.7855,-2.7859,-2.7899,-2.7854,-2.789,-2.7891,-2.7886,-2.7979,-2.7995,-2.8064,-2.7948,-2.7949,-2.7951,0,-2.7693,-2.7716,-2.7783,-2.7798,-2.7811,-2.7841,-2.7867,-2.7892,-2.7909,-2.7909,-2.7926,-2.7915,-2.7953,-2.7918,-2.7969,-2.7939,-2.7953,-2.7957,-2.796,-2.7963,-2.7925,-2.7985,-2.8086,-2.8096,-2.7966,-2.7964,-2.7963,0,-2.7757,-2.7806,-2.7852,-2.7863,-2.7882,-2.7903,-2.7912,-2.7927,-2.7944,-2.7966,-2.7976,-2.8002,-2.8016,-2.8035,-2.8031,-2.8007,-2.8083,-2.8049,-2.8084,-2.8084,-2.8101,-2.81,-2.8206,-2.811,-2.811,-2.811,-2.811,0,-2.7841,-2.7883,-2.7881,-2.791,-2.7955,-2.7949,-2.7994,-2.8,-2.8013,-2.8041,-2.8026,-2.8052,-2.8045,-2.8072,-2.8068,-2.8111,-2.8117,-2.8118,-2.8117,-2.812,-2.812,-2.8129,-2.8124,-2.8113,-2.8112,-2.8111,-2.8111,0,-2.7922,-2.7923,-2.7972,-2.7986,-2.799,-2.8023,-2.8034,-2.806,-2.8062,-2.8098,-2.8106,-2.8108,-2.8138,-2.8136,-2.8169,-2.8167,-2.822,-2.8213,-2.8214,-2.8213,-2.8248,-2.8245,-2.8364,-2.8379,-2.8274,-2.8275,-2.8275,0,-2.7976,-2.8007,-2.8025,-2.8043,-2.8053,-2.8083,-2.81,-2.8094,-2.8113,-2.8134,-2.8157,-2.8186,-2.8208,-2.8257,-2.8261,-2.8286,-2.828,-2.8319,-2.8283,-2.8285,-2.828,-2.8278,-2.8281,-2.8327,-2.8328,-2.8329,-2.833,0,-2.8071,-2.8069,-2.8096,-2.8122,-2.8143,-2.8163,-2.8182,-2.8197,-2.8193,-2.8214,-2.8245,-2.8263,-2.8297,-2.8325,-2.8349,-2.8356,-2.8342,-2.8341,-2.835,-2.8354,-2.8354,-2.8354,-2.8234,-2.8338,-2.8337,-2.8337,-2.8336,-2.8336,-2.814,-2.8167,-2.8183,-2.8212,-2.8226,-2.8243,-2.8268,-2.8273,-2.8299,-2.8327,-2.8321,-2.8355,-2.837,-2.84,-2.841,-2.8436,-2.8422,-2.8436,-2.8439,-2.8443,-2.8447,-2.8349,-2.8441,-2.844,-2.844,-2.844,-2.844,0,-2.8234,-2.8243,-2.827,-2.8297,-2.832,-2.8305,-2.8324,-2.8344,-2.8374,-2.8389,-2.8412,-2.8447,-2.8474,-2.8479,-2.8505,-2.8525,-2.8519,-2.8532,-2.853,-2.8532,-2.8458,-2.8448,-2.8536,-2.8536,-2.8536,-2.8536,-2.8536,-2.8536,-2.8286,-2.8331,-2.8331,-2.8382,-2.839,-2.8424,-2.8437,-2.8452,-2.8464,-2.8504,-2.8526,-2.853,-2.8541,-2.8567,-2.8591,-2.8592,-2.8602,-2.8617,-2.8616,-2.8547,-2.8537,-2.8528,-2.8518,-2.862,-2.862,-2.8687,-2.8688,-2.8688]}]]